Погода в Литл-Роке

США     34°43′51″N   92°18′03″W
темп.,
°C
ветер,
м/с
пор.,
м/с
влажн.,
%
обл.,
%
осадки,
мм/ч
давл.,
гПа
погр.,
м
6 мая, чт
чт601:00+13с00730 0.0 102110
04:00+14з227196 0.0 102160
07:00+13з11770 0.0 102238
10:00+20зсз24525 0.0 1023639
13:00+24сз47420 0.0 10211856
16:00+25зсз611375 0.0 10193129
19:00+22сз49530 0.0 1019906
22:00+15с412600 0.0 1023477
7 мая, пт
пт701:00+11ссв310770 0.0 1024365
04:00+9с23760 0.0 102496
07:00+9ссз11750 0.0 102454
10:00+17юз11485 0.0 1025629
13:00+21ююв223669 0.0 10221167
16:00+18ю355483 0.0 1020396
19:00+19юв35586 0.0 1018225
22:00+15ююв276455 0.0 1019173
8 мая, сб
сб801:00+13ююз277531 0.0 1018149
04:00+13ююз31371100 0.0 1017303
07:00+14ю31369100 0.0 1017396
10:00+19ююз4962100 0.0 1016632
13:00+26ююз594075 0.0 10141671
16:00+28ююз69389 0.0 10112061
19:00+24ю41056100 0.0 1010561
22:00+20ююв41372100 0.0 1010480
9 мая, вс
вс901:00+21ю6146969 0.0 1010964
04:00+20ю61579100 0.0 10091032
07:00+19ю61585100 0.0 10081058
10:00+19ююз61593100 1.5 10091142
13:00+21ююз6159368 6.8 10081065
16:00+22ююз4128998 1.1 1007766
19:00+24юз511855 4.6 1007457
22:00+20ююз5129699 3.7 1007361
10 мая, пн
пн1001:00+17зюз1298100 7.6 100997
04:00+16ссв5993100 2.7 1011470
07:00+13ссв499199 2.8 1014445
10:00+15св457287 0.0 1015556
13:00+20всв346283 0.4 1015899
16:00+20всв456599 0.1 1015892
19:00+18всв4973100 0.1 1015663
22:00+15св61170100 0.0 1018695